#timestamp,LO_Frequency,Hit,StdDev 
1588687215.7,286047000.3,N
1588687235.5,286046998.4,N
1588687255.4,286046997.7,N
1588687275.2,286046997.3,N
1588687295.0,286046994.6,N
1588687296.0,286046994.6,N
1588687315.8,286046994.6,N
1588687335.6,286046994.8,N
1588687355.5,286046992.1,Y
1588687375.3,286046992.0,P
1588687395.1,286046991.9,N
1588687415.9,286046993.0,N
1588687435.7,286046993.0,N
1588687455.6,286046992.8,N
1588687475.4,286046990.2,Y
1588687495.2,286046993.3,P
1588687515.1,286046993.3,P
1588687516.0,286046993.3,P
1588687535.8,286046993.4,Y
1588687555.6,286047001.4,P
1588687575.5,286047004.0,N
1588687595.3,286047001.7,N
1588687615.2,286047004.1,N
1588687635.9,286047005.2,N
1588687655.7,286047003.8,N
1588687675.6,286047001.7,N
1588687695.4,286047001.3,N
1588687715.2,286047003.6,N
1588687735.1,286047003.8,N
1588687736.0,286047003.8,N
1588687755.8,286047004.0,N
1588687775.7,286047000.0,N
1588687795.5,286047002.2,N
1588687815.3,286046999.9,N
1588687835.2,286047002.0,N
1588687855.0,286047002.8,N
1588687855.9,286047002.8,N
1588687875.7,286047001.4,N
1588687895.6,286047005.7,N
1588687915.4,286047004.0,N
1588687935.3,286047002.2,N
1588687955.1,286047001.4,N
1588687956.0,286047001.4,N
1588687975.8,286047001.7,N
1588687995.7,286047001.7,N
1588688015.5,286047004.2,N
1588688035.3,286047003.8,N
1588688055.2,286047003.0,N
1588688075.0,286047005.9,N
1588688075.9,286047005.9,Y
1588688095.8,286047001.9,P
1588688115.6,286047002.8,P
1588688135.4,286046999.7,N
1588688155.3,286047000.6,N
1588688175.1,286046998.7,N
1588688195.8,286047000.8,N
1588688215.7,286046998.9,N
1588688235.5,286046996.9,N
1588688255.4,286046998.9,N
1588688275.2,286046999.2,N
1588688295.0,286046999.2,N
1588688295.9,286046999.2,N
1588688315.8,286046999.5,N
1588688335.6,286046997.3,N
1588688355.4,286046995.0,N
1588688375.3,286046994.9,N
1588688395.1,286046995.3,N
1588688415.9,286046995.4,N
1588688435.7,286046997.1,N
1588688455.5,286046997.5,N
1588688475.4,286046997.7,N
1588688495.2,286046997.4,N
1588688515.0,286046997.5,N
1588688515.9,286046997.5,N
1588688535.8,286046997.6,N
1588688555.6,286046996.6,N
1588688575.5,286046999.5,N
1588688595.3,286046999.4,N
1588688615.1,286047000.4,N
1588688635.9,286047000.0,N
1588688655.7,286046999.1,N
1588688675.5,286046998.8,N
1588688695.4,286046998.4,N
1588688715.2,286047002.3,N
1588688735.1,286047002.4,N
1588688736.0,286047002.4,N
1588688755.8,286047002.8,N
1588688775.6,286046999.9,N
1588688795.5,286047000.1,N
1588688815.3,286047000.8,N
1588688835.1,286047001.1,N
1588688855.9,286046999.4,N
1588688875.7,286047002.1,N
1588688895.6,286047004.4,N
1588688915.4,286047003.5,N
1588688935.2,286047005.3,N
1588688955.1,286047003.6,N
1588688956.0,286047003.6,N
1588688975.8,286047005.2,N
1588688995.6,286047005.7,N
1588689015.5,286047005.6,N
1588689035.3,286047006.9,N
1588689055.2,286047007.6,N
1588689075.9,286047005.1,N
1588689095.7,286047006.7,N
1588689115.6,286047004.7,N
1588689135.4,286047004.9,N
1588689155.2,286047003.5,N
1588689175.1,286047001.9,N
1588689176.0,286047001.9,N
1588689195.8,286047002.8,N
1588689215.7,286047002.1,N
1588689235.5,286047002.6,N
1588689255.3,286047002.2,N
1588689275.2,286047000.6,N
1588689295.0,286047000.7,N
1588689295.9,286047000.7,N
1588689315.7,286047000.0,N
1588689335.6,286047001.2,N
1588689355.4,286047001.2,N
1588689375.3,286047002.6,N
1588689395.1,286046999.8,N
1588689396.0,286046999.8,N
1588689415.8,286047001.4,N
1588689435.7,286047002.2,N
1588689455.5,286047002.5,N
1588689475.3,286047002.2,N
1588689495.2,286047001.8,N
1588689515.0,286047001.4,N
1588689515.9,286047001.4,N
1588689535.8,286047001.9,N
1588689555.6,286047004.2,N
1588689575.4,286047003.6,N
1588689595.3,286047001.8,N
1588689615.1,286047001.9,N
1588689635.9,286047003.9,Y
1588689655.7,286047000.3,P
1588689675.5,286047000.5,N
1588689695.4,286047001.9,N
1588689715.2,286047004.2,Y
1588689735.0,286047002.6,P
1588689735.9,286047002.6,P
1588689755.8,286047002.5,P
1588689775.6,286047001.9,Y
1588689795.5,286047000.6,P
1588689815.3,286047000.2,N
1588689835.1,286047002.5,N
1588689855.9,286047002.8,N
1588689875.7,286047002.3,N
1588689895.6,286047004.2,Y
1588689915.4,286047000.3,P
1588689935.2,286047000.1,N
1588689955.1,286047001.2,N
1588689956.0,286047001.2,N
1588689975.8,286046998.8,N
1588689995.6,286047000.9,N
1588690015.5,286047000.6,N
1588690035.3,286047000.6,N
1588690055.2,286046996.5,Y
1588690075.9,286046995.3,P
1588690095.7,286046998.8,N
1588690115.6,286046998.9,N
1588690135.4,286046998.3,N
1588690155.2,286046999.3,N
1588690175.1,286046997.4,N
1588690176.0,286046997.4,N
1588690195.8,286046998.0,N
1588690215.7,286046996.1,N
1588690235.5,286046999.6,N
1588690255.3,286046999.6,N
1588690275.2,286046997.5,N
1588690295.9,286046996.7,N
1588690315.7,286046998.7,N
1588690335.6,286046999.6,N
1588690355.4,286046999.2,N
1588690375.2,286046999.5,N
1588690395.1,286046995.3,Y
1588690396.0,286046995.3,P
1588690415.8,286046999.1,N
1588690435.7,286047001.1,N
1588690455.5,286047001.1,N
1588690475.3,286047001.1,N
1588690495.2,286047001.0,N
1588690515.0,286046996.6,N
1588690515.9,286046996.6,N
1588690535.8,286046996.7,N
1588690555.6,286046996.5,N
1588690575.4,286046999.6,N
1588690595.3,286046997.2,N
1588690615.1,286046996.7,N
1588690635.8,286046996.6,N
1588690655.7,286046999.2,N
1588690675.5,286046996.9,N
1588690695.4,286046999.9,N
1588690715.2,286047000.9,N
1588690735.0,286046999.3,N
1588690735.9,286046999.3,N
1588690755.8,286046996.5,N
1588690775.6,286046999.5,N
1588690795.5,286046998.7,N
